Regional Weather Roundup
Issued by NWS

Home | Current Version | Previous Version | Graphics & Text | Print | Product List | Glossary On
Versions: 1 2 3 4 5 6 7 8 9 10 11 12 13 14 15 16 17 18 19 20 21 22 23 24 25 26 27 28 29 30 31 32 33 34 35 36 37 38 39 40 41 42 43 44 45 46 47 48 49 50
000
ASUS45 KTFX 262010
RWRMT
MONTANA REGIONAL WEATHER ROUNDUP
NATIONAL WEATHER SERVICE GREAT FALLS MT
200 PM MDT FRI MAY 26 2017

NOTE: "FAIR" INDICATES FEW OR NO CLOUDS BELOW 12000 FEET WITH NO
SIGNIFICANT WEATHER AND/OR OBSTRUCTIONS TO VISIBILITY.

MTZ001>007-043-262100-
WEST OF THE DIVIDE

CITY           SKY/WX    TMP DP  RH WIND       PRES   REMARKS
KALISPELL      MOSUNNY   68  37  32 VRB3      29.91F
MISSOULA       LGT RAIN  60  41  49 W12G23    29.92R
BUTTE          CLOUDY    57  24  28 VRB5      29.93F
MULLAN PASS    PTSUNNY   54  30  40 VRB6      30.00R
ANACONDA         N/A     59  25  27 N9        29.93S
DEER LODGE       N/A     61  30  31 N13G22    29.95S
EUREKA           N/A     66  37  34 SW7       29.91F
HAMILTON         N/A     64  28  25 N12       29.91S
RONAN            N/A     64  37  36 W6        29.98F
$$

MTZ008-052>055-262100-
SOUTHWEST MONTANA

CITY           SKY/WX    TMP DP  RH WIND       PRES   REMARKS
BOZEMAN        MOSUNNY   59  33  37 CALM      29.90F
DILLON         PTSUNNY   58  28  32 NE9       29.90S
ENNIS          PTSUNNY   57  30  35 N10G20    29.95S
THREE FORKS      N/A     61  31  32 W7        29.91F
TWIN BRIDGES     N/A     61  26  26 N16       29.90S
$$

MTZ009-010-012-014-046-048-049-054-262100-
EAST SLOPES AND CENTRAL MONTANA

CITY           SKY/WX    TMP DP  RH WIND       PRES   REMARKS
CUT BANK       SUNNY     63  31  30 N12       29.90F
GREAT FALLS    PTSUNNY   59  36  42 E3        29.92F
MALMSTROM AFB  SUNNY     60  33  36 W6        29.92F
HELENA         SUNNY     65  31  28 N6        29.92F
CHOTEAU          N/A     61  32  33 CALM      29.94S
CONRAD           N/A     64  47  54 NW6       29.95S
$$

MTZ011-013-016-021-045-047-050-051-262100-
NORTH CENTRAL MONTANA

CITY           SKY/WX    TMP DP  RH WIND       PRES   REMARKS
HAVRE          CLOUDY    65  36  34 MISG      29.86F
LEWISTOWN      MOSUNNY   57  33  40 W8        29.94S
N BAR RANCH      N/A     57  32  38 N12       29.95F
CHINOOK          N/A     63  37  39 W9G18     29.85S
FORT BENTON      N/A     64  32  29 CALM      29.91S
$$

MTZ017>020-022>027-061-062-262100-
NORTHEAST MONTANA

CITY           SKY/WX    TMP DP  RH WIND       PRES   REMARKS
GLASGOW        CLOUDY    67  31  26 W14G26    29.81F
JORDAN           N/A     65  33  30 NW14G22   29.86F
SIDNEY         MOSUNNY   67  33  28 NW18G31   29.79F
WOLF POINT     CLOUDY    67  32  27 NW16      29.80S
MALTA          PTSUNNY   64  34  32 NW20G26   29.84R
PLENTYWOOD       N/A     64  32  29 NW22G35   29.74R
POPLAR           N/A     66  30  26 NW18G28   29.79S
SCOBEY           N/A     65  33  30 NW22      29.79R
$$

MTZ028>42-056>058-262100-
SOUTHCENTRAL AND SOUTHEAST MONTANA

CITY           SKY/WX    TMP DP  RH WIND       PRES   REMARKS
BAKER          CLOUDY    60  35  39 NW13G24   29.86F
BILLINGS       CLOUDY    61  30  31 CALM      29.91F
LIVINGSTON     CLOUDY    60  34  37 E12G20    29.91F
MILES CITY     PTSUNNY   66  29  24 NW16G24   29.85F
BIG TIMBER     CLOUDY    55  34  44 SE9       29.95F
EKALAKA          N/A     61  35  37 NW13      29.87F
FORSYTH          N/A     63  30  29 N8G16     29.87S
LAUREL           N/A     60  35  39 NE2       29.92S
ROUNDUP          N/A     61  28  28 N10       29.84S
$$

REGIONAL REPORTS...DAKOTAS

CITY           SKY/WX    TMP DP  RH WIND       PRES   REMARKS
WILLISTON      PTSUNNY   70  35  27 W22G28    29.77S
MINOT          PTSUNNY   65  41  41 W21G29    29.72S
DICKINSON      CLOUDY    65  33  30 NW23G33   29.80R
BEACH          PTSUNNY   63  32  31 NW20G28   29.86S
CROSBY         PTSUNNY   63  36  36 NW22G28   29.73S
TIOGA          PTSUNNY   63  34  34 NW24G33   29.76R
WATFORD CITY     N/A     64  36  34 NW15G29   29.77S
BISMARCK       CLOUDY    67  41  38 W18       29.78R
GRAND FORKS    PTSUNNY   67  46  47 W20       29.69R
FARGO          PTSUNNY   72  44  36 W20G26    29.71R
BUFFALO SD       N/A     64  36  35 NW15      29.81F
RAPID CITY     CLOUDY    63  36  36 VRB3      29.89S
$$

REGIONAL REPORTS...WYOMING/IDAHO/WASHINGTON

CITY           SKY/WX    TMP DP  RH WIND       PRES   REMARKS
GILLETTE       CLOUDY    56  34  43 CALM      29.92R
SHERIDAN       CLOUDY    56  37  49 CALM      29.92F
BUFFALO WY     CLOUDY    53  34  48 N6        29.95S
CODY           LGT RAIN  47  31  53 VRB3      29.96R
YELLOWSTONE LA   N/A     33  33 100 CALM      29.99R
IDAHO FALLS    CLOUDY    43  40  89 NW13      29.95R
SALMON         PTSUNNY   61  30  31 S3        29.88F
BOISE          MOSUNNY   67  41  38 NW16G23   29.90S
SPOKANE        MOSUNNY   70  39  32 N6        29.94F
$$

REGIONAL REPORTS...ALBERTA

CITY           SKY/WX    TMP DP  RH WIND       PRES   REMARKS
EDMONTON       PTSUNNY   70  41  35 W7        29.74S
CALGARY        PTSUNNY   64  30  27 NW8G18    29.86S
LETHBRIDGE     MOSUNNY   64  34  32 W5        29.87F
MEDICINE HAT   PTSUNNY   66  37  34 W16G26    29.82F
WATERTON GATE    N/A     59  30  33 SW5         N/A
CARDSTON         N/A     63  32  31 NW6         N/A
$$

REGIONAL REPORTS...SASKATCHEWAN

CITY           SKY/WX    TMP DP  RH WIND       PRES   REMARKS
SWIFT CURRENT  LGT RAIN  52  41  66 W25G36    29.79R
REGINA         PTSUNNY   66  37  34 NW25G36   29.67S
SASKATOON      MOSUNNY   66  37  34 NW21G39   29.66S
CYPRESS HILLS    N/A     43  37  81 NW9G18      N/A
VAL MARIE        N/A     59  36  41 N17G23      N/A
ROCKGLEN         N/A     61  34  36 NW15G23     N/A
ASSINIBOIA       N/A     68  41  37 NW13G18     N/A
$$



USA.gov is the U.S. government's official web portal to all federal, state and local government web resources and services.